Year,Month,Day,Hour,Minute,Value (Times are PST for temperature in C)
2013,04,30,00,00,2.70
2013,04,30,00,01,2.60
2013,04,30,00,02,2.60
2013,04,30,00,03,2.60
2013,04,30,00,04,2.60
2013,04,30,00,05,2.60
2013,04,30,00,06,2.60
2013,04,30,00,07,2.50
2013,04,30,00,08,2.50
2013,04,30,00,09,2.50
2013,04,30,00,10,2.50
2013,04,30,00,11,2.40
2013,04,30,00,12,2.40
2013,04,30,00,13,2.40
2013,04,30,00,14,2.40
2013,04,30,00,15,2.40
2013,04,30,00,16,2.40
2013,04,30,00,17,2.40
2013,04,30,00,18,2.30
2013,04,30,00,19,2.30
2013,04,30,00,20,2.30
2013,04,30,00,21,2.30
2013,04,30,00,22,2.30
2013,04,30,00,23,2.20
2013,04,30,00,24,2.20
2013,04,30,00,25,2.20
2013,04,30,00,26,2.20
2013,04,30,00,27,2.20
2013,04,30,00,28,2.20
2013,04,30,00,29,2.20
2013,04,30,00,30,2.20
2013,04,30,00,31,2.10
2013,04,30,00,32,2.10
2013,04,30,00,33,2.10
2013,04,30,00,34,2.10
2013,04,30,00,35,2.10
2013,04,30,00,36,2.00
2013,04,30,00,37,2.00
2013,04,30,00,38,2.00
2013,04,30,00,39,2.00
2013,04,30,00,40,2.00
2013,04,30,00,41,2.00
2013,04,30,00,42,1.90
2013,04,30,00,43,1.90
2013,04,30,00,44,1.90
2013,04,30,00,45,1.90
2013,04,30,00,46,1.90
2013,04,30,00,47,1.90
2013,04,30,00,48,1.90
2013,04,30,00,49,1.80
2013,04,30,00,50,1.80
2013,04,30,00,51,1.80
2013,04,30,00,52,1.80
2013,04,30,00,53,1.80
2013,04,30,00,54,1.80
2013,04,30,00,55,1.80
2013,04,30,00,56,1.80
2013,04,30,00,57,1.80
2013,04,30,00,58,1.80
2013,04,30,00,59,1.70
2013,04,30,01,00,1.70
2013,04,30,01,01,1.70
2013,04,30,01,02,1.70
2013,04,30,01,03,1.70
2013,04,30,01,04,1.70
2013,04,30,01,05,1.70
2013,04,30,01,06,1.70
2013,04,30,01,07,1.70
2013,04,30,01,08,1.70
2013,04,30,01,09,1.70
2013,04,30,01,10,1.70
2013,04,30,01,11,1.70
2013,04,30,01,12,1.60
2013,04,30,01,13,1.60
2013,04,30,01,14,1.60
2013,04,30,01,15,1.60
2013,04,30,01,16,1.60
2013,04,30,01,17,1.60
2013,04,30,01,18,1.60
2013,04,30,01,19,1.60
2013,04,30,01,20,1.60
2013,04,30,01,21,1.60
2013,04,30,01,22,1.60
2013,04,30,01,23,1.60
2013,04,30,01,24,1.60
2013,04,30,01,25,1.60
2013,04,30,01,26,1.60
2013,04,30,01,27,1.60
2013,04,30,01,28,1.60
2013,04,30,01,29,1.60
2013,04,30,01,30,1.70
2013,04,30,01,31,1.70
2013,04,30,01,32,1.70
2013,04,30,01,33,1.60
2013,04,30,01,34,1.60
2013,04,30,01,35,1.60
2013,04,30,01,36,1.60
2013,04,30,01,37,1.60
2013,04,30,01,38,1.50
2013,04,30,01,39,1.50
2013,04,30,01,40,1.50
2013,04,30,01,41,1.40
2013,04,30,01,42,1.40
2013,04,30,01,43,1.40
2013,04,30,01,44,1.40
2013,04,30,01,45,1.40
2013,04,30,01,46,1.40
2013,04,30,01,47,1.40
2013,04,30,01,48,1.40
2013,04,30,01,49,1.40
2013,04,30,01,50,1.40
2013,04,30,01,51,1.40
2013,04,30,01,52,1.40
2013,04,30,01,53,1.40
2013,04,30,01,54,1.40
2013,04,30,01,55,1.40
2013,04,30,01,56,1.40
2013,04,30,01,57,1.40
2013,04,30,01,58,1.40
2013,04,30,01,59,1.40
2013,04,30,02,00,1.40
2013,04,30,02,01,1.40
2013,04,30,02,02,1.40
2013,04,30,02,03,1.40
2013,04,30,02,04,1.40
2013,04,30,02,05,1.40
2013,04,30,02,06,1.40
2013,04,30,02,07,1.40
2013,04,30,02,08,1.40
2013,04,30,02,09,1.40
2013,04,30,02,10,1.40
2013,04,30,02,11,1.40
2013,04,30,02,12,1.40
2013,04,30,02,13,1.40
2013,04,30,02,14,1.40
2013,04,30,02,15,1.40
2013,04,30,02,16,1.40
2013,04,30,02,17,1.40
2013,04,30,02,18,1.40
2013,04,30,02,19,1.40
2013,04,30,02,20,1.40
2013,04,30,02,21,1.40
2013,04,30,02,22,1.40
2013,04,30,02,23,1.40
2013,04,30,02,24,1.40
2013,04,30,02,25,1.40
2013,04,30,02,26,1.40
2013,04,30,02,27,1.40
2013,04,30,02,28,1.40
2013,04,30,02,29,1.40
2013,04,30,02,30,1.40
2013,04,30,02,31,1.40
2013,04,30,02,32,1.40
2013,04,30,02,33,1.40
2013,04,30,02,34,1.40
2013,04,30,02,35,1.40
2013,04,30,02,36,1.40
2013,04,30,02,37,1.50
2013,04,30,02,38,1.50
2013,04,30,02,39,1.50
2013,04,30,02,40,1.50
2013,04,30,02,41,1.50
2013,04,30,02,42,1.50
2013,04,30,02,43,1.50
2013,04,30,02,44,1.50
2013,04,30,02,45,1.50
2013,04,30,02,46,1.50
2013,04,30,02,47,1.50
2013,04,30,02,48,1.50
2013,04,30,02,49,1.50
2013,04,30,02,50,1.50
2013,04,30,02,51,1.50
2013,04,30,02,52,1.50
2013,04,30,02,53,1.50
2013,04,30,02,54,1.50
2013,04,30,02,55,1.50
2013,04,30,02,56,1.50
2013,04,30,02,57,1.50
2013,04,30,02,58,1.50
2013,04,30,02,59,1.50
2013,04,30,03,00,1.50
2013,04,30,03,01,1.50
2013,04,30,03,02,1.50
2013,04,30,03,03,1.50
2013,04,30,03,04,1.50
2013,04,30,03,05,1.50
2013,04,30,03,06,1.50
2013,04,30,03,07,1.50
2013,04,30,03,08,1.50
2013,04,30,03,09,1.50
2013,04,30,03,10,1.50
2013,04,30,03,11,1.50
2013,04,30,03,12,1.50
2013,04,30,03,13,1.40
2013,04,30,03,14,1.40
2013,04,30,03,15,1.40
2013,04,30,03,16,1.40
2013,04,30,03,17,1.40
2013,04,30,03,18,1.40
2013,04,30,03,19,1.40
2013,04,30,03,20,1.40
2013,04,30,03,21,1.40
2013,04,30,03,22,1.40
2013,04,30,03,23,1.40
2013,04,30,03,24,1.40
2013,04,30,03,25,1.40
2013,04,30,03,26,1.40
2013,04,30,03,27,1.40
2013,04,30,03,28,1.40
2013,04,30,03,29,1.40
2013,04,30,03,30,1.40
2013,04,30,03,31,1.40
2013,04,30,03,32,1.40
2013,04,30,03,33,1.40
2013,04,30,03,34,1.40
2013,04,30,03,35,1.40
2013,04,30,03,36,1.40
2013,04,30,03,37,1.40
2013,04,30,03,38,1.40
2013,04,30,03,39,1.40
2013,04,30,03,40,1.40
2013,04,30,03,41,1.40
2013,04,30,03,42,1.40
2013,04,30,03,43,1.40
2013,04,30,03,44,1.40
2013,04,30,03,45,1.40
2013,04,30,03,46,1.40
2013,04,30,03,47,1.30
2013,04,30,03,48,1.30
2013,04,30,03,49,1.30
2013,04,30,03,50,1.30
2013,04,30,03,51,1.30
2013,04,30,03,52,1.30
2013,04,30,03,53,1.30
2013,04,30,03,54,1.20
2013,04,30,03,55,1.20
2013,04,30,03,56,1.20
2013,04,30,03,57,1.20
2013,04,30,03,58,1.20
2013,04,30,03,59,1.20
2013,04,30,04,00,1.20
2013,04,30,04,01,1.10
2013,04,30,04,02,1.10
2013,04,30,04,03,1.10
2013,04,30,04,04,1.10
2013,04,30,04,05,1.10
2013,04,30,04,06,1.10
2013,04,30,04,07,1.00
2013,04,30,04,08,1.00
2013,04,30,04,09,1.00
2013,04,30,04,10,1.00
2013,04,30,04,11,1.00
2013,04,30,04,12,1.00
2013,04,30,04,13,1.00
2013,04,30,04,14,1.00
2013,04,30,04,15,1.00
2013,04,30,04,16,1.00
2013,04,30,04,17,1.00
2013,04,30,04,18,1.00
2013,04,30,04,19,1.00
2013,04,30,04,20,0.90
2013,04,30,04,21,0.90
2013,04,30,04,22,0.90
2013,04,30,04,23,0.90
2013,04,30,04,24,0.90
2013,04,30,04,25,0.90
2013,04,30,04,26,0.80
2013,04,30,04,27,0.80
2013,04,30,04,28,0.80
2013,04,30,04,29,0.80
2013,04,30,04,30,0.80
2013,04,30,04,31,0.80
2013,04,30,04,32,0.80
2013,04,30,04,33,0.80
2013,04,30,04,34,0.80
2013,04,30,04,35,0.80
2013,04,30,04,36,0.80
2013,04,30,04,37,0.80
2013,04,30,04,38,0.80
2013,04,30,04,39,0.80
2013,04,30,04,40,0.80
2013,04,30,04,41,0.70
2013,04,30,04,42,0.70
2013,04,30,04,43,0.70
2013,04,30,04,44,0.70
2013,04,30,04,45,0.70
2013,04,30,04,46,0.70
2013,04,30,04,47,0.60
2013,04,30,04,48,0.60
2013,04,30,04,49,0.60
2013,04,30,04,50,0.60
2013,04,30,04,51,0.60
2013,04,30,04,52,0.60
2013,04,30,04,53,0.60
2013,04,30,04,54,0.60
2013,04,30,04,55,0.60
2013,04,30,04,56,0.60
2013,04,30,04,57,0.60
2013,04,30,04,58,0.60
2013,04,30,04,59,0.50
2013,04,30,05,00,0.50
2013,04,30,05,01,0.50
2013,04,30,05,02,0.50
2013,04,30,05,03,0.50
2013,04,30,05,04,0.50
2013,04,30,05,05,0.50
2013,04,30,05,06,0.50
2013,04,30,05,07,0.50
2013,04,30,05,08,0.50
2013,04,30,05,09,0.50
2013,04,30,05,10,0.50
2013,04,30,05,11,0.50
2013,04,30,05,12,0.50
2013,04,30,05,13,0.50
2013,04,30,05,14,0.40
2013,04,30,05,15,0.40
2013,04,30,05,16,0.40
2013,04,30,05,17,0.30
2013,04,30,05,18,0.30
2013,04,30,05,19,0.30
2013,04,30,05,20,0.30
2013,04,30,05,21,0.30
2013,04,30,05,22,0.30
2013,04,30,05,23,0.30
2013,04,30,05,24,0.30
2013,04,30,05,25,0.30
2013,04,30,05,26,0.20
2013,04,30,05,27,0.30
2013,04,30,05,28,0.30
2013,04,30,05,29,0.30
2013,04,30,05,30,0.30
2013,04,30,05,31,0.30
2013,04,30,05,32,0.30
2013,04,30,05,33,0.30
2013,04,30,05,34,0.30
2013,04,30,05,35,0.30
2013,04,30,05,36,0.30
2013,04,30,05,37,0.30
2013,04,30,05,38,0.30
2013,04,30,05,39,0.30
2013,04,30,05,40,0.30
2013,04,30,05,41,0.30
2013,04,30,05,42,0.30
2013,04,30,05,43,0.30
2013,04,30,05,44,0.30
2013,04,30,05,45,0.40
2013,04,30,05,46,0.40
2013,04,30,05,47,0.40
2013,04,30,05,48,0.30
2013,04,30,05,49,0.30
2013,04,30,05,50,0.30
2013,04,30,05,51,0.30
2013,04,30,05,52,0.30
2013,04,30,05,53,0.30
2013,04,30,05,54,0.20
2013,04,30,05,55,0.20
2013,04,30,05,56,0.20
2013,04,30,05,57,0.20
2013,04,30,05,58,0.10
2013,04,30,05,59,0.10
2013,04,30,06,00,0.10
2013,04,30,06,01,0.10
2013,04,30,06,02,0.10
2013,04,30,06,03,0.10
2013,04,30,06,04,0.10
2013,04,30,06,05,0.10
2013,04,30,06,06,0.00
2013,04,30,06,07,0.00
2013,04,30,06,08,0.00
2013,04,30,06,09,0.00
2013,04,30,06,10,0.00
2013,04,30,06,11,0.00
2013,04,30,06,12,0.00
2013,04,30,06,13,0.00
2013,04,30,06,14,0.00
2013,04,30,06,15,0.00
2013,04,30,06,16,0.00
2013,04,30,06,17,0.00
2013,04,30,06,18,0.00
2013,04,30,06,19,0.00
2013,04,30,06,20,0.00
2013,04,30,06,21,0.00
2013,04,30,06,22,0.10
2013,04,30,06,23,0.10
2013,04,30,06,24,0.00
2013,04,30,06,25,0.00
2013,04,30,06,26,0.00
2013,04,30,06,27,0.00
2013,04,30,06,28,0.00
2013,04,30,06,29,0.00
2013,04,30,06,30,0.00
2013,04,30,06,31,0.00
2013,04,30,06,32,0.00
2013,04,30,06,33,0.00
2013,04,30,06,34,0.00
2013,04,30,06,35,0.00
2013,04,30,06,36,0.00
2013,04,30,06,37,0.00
2013,04,30,06,38,-0.10
2013,04,30,06,39,-0.10
2013,04,30,06,40,-0.10
2013,04,30,06,41,-0.10
2013,04,30,06,42,-0.10
2013,04,30,06,43,-0.10
2013,04,30,06,44,-0.10
2013,04,30,06,45,-0.10
2013,04,30,06,46,0.00
2013,04,30,06,47,0.00
2013,04,30,06,48,0.00
2013,04,30,06,49,-0.10
2013,04,30,06,50,-0.10
2013,04,30,06,51,-0.10
2013,04,30,06,52,-0.10
2013,04,30,06,53,-0.10
2013,04,30,06,54,-0.10
2013,04,30,06,55,-0.10
2013,04,30,06,56,-0.10
2013,04,30,06,57,-0.10
2013,04,30,06,58,-0.10
2013,04,30,06,59,-0.10
2013,04,30,07,00,-0.10
2013,04,30,07,01,-0.10
2013,04,30,07,02,-0.10
2013,04,30,07,03,-0.10
2013,04,30,07,04,-0.10
2013,04,30,07,05,-0.10
2013,04,30,07,06,-0.10
2013,04,30,07,07,-0.10
2013,04,30,07,08,-0.10
2013,04,30,07,09,-0.10
2013,04,30,07,10,0.00
2013,04,30,07,11,0.00
2013,04,30,07,12,0.00
2013,04,30,07,13,-0.10
2013,04,30,07,14,-0.10
2013,04,30,07,15,-0.10
2013,04,30,07,16,-0.10
2013,04,30,07,17,-0.10
2013,04,30,07,18,0.00
2013,04,30,07,19,0.00
2013,04,30,07,20,-0.10
2013,04,30,07,21,-0.10
2013,04,30,07,22,-0.10
2013,04,30,07,23,0.00
2013,04,30,07,24,0.00
2013,04,30,07,25,0.00
2013,04,30,07,26,0.00
2013,04,30,07,27,0.00
2013,04,30,07,28,0.10
2013,04,30,07,29,0.10
2013,04,30,07,30,0.10
2013,04,30,07,31,0.10
2013,04,30,07,32,0.20
2013,04,30,07,33,0.20
2013,04,30,07,34,0.20
2013,04,30,07,35,0.20
2013,04,30,07,36,0.20
2013,04,30,07,37,0.20
2013,04,30,07,38,0.20
2013,04,30,07,39,0.20
2013,04,30,07,40,0.20
2013,04,30,07,41,0.20
2013,04,30,07,42,0.20
2013,04,30,07,43,0.20
2013,04,30,07,44,0.20
2013,04,30,07,45,0.20
2013,04,30,07,46,0.20
2013,04,30,07,47,0.20
2013,04,30,07,48,0.20
2013,04,30,07,49,0.20
2013,04,30,07,50,0.30
2013,04,30,07,51,0.30
2013,04,30,07,52,0.30
2013,04,30,07,53,0.40
2013,04,30,07,54,0.40
2013,04,30,07,55,0.40
2013,04,30,07,56,0.40
2013,04,30,07,57,0.50
2013,04,30,07,58,0.50
2013,04,30,07,59,0.50
2013,04,30,08,00,0.60
2013,04,30,08,01,0.60
2013,04,30,08,02,0.60
2013,04,30,08,03,0.60
2013,04,30,08,04,0.60
2013,04,30,08,05,0.60
2013,04,30,08,06,0.70
2013,04,30,08,07,0.70
2013,04,30,08,08,0.70
2013,04,30,08,09,0.70
2013,04,30,08,10,0.70
2013,04,30,08,11,0.70
2013,04,30,08,12,0.70
2013,04,30,08,13,0.70
2013,04,30,08,14,0.70
2013,04,30,08,15,0.70
2013,04,30,08,16,0.70
2013,04,30,08,17,0.70
2013,04,30,08,18,0.80
2013,04,30,08,19,0.80
2013,04,30,08,20,0.80
2013,04,30,08,21,0.90
2013,04,30,08,22,0.90
2013,04,30,08,23,1.00
2013,04,30,08,24,1.00
2013,04,30,08,25,1.10
2013,04,30,08,26,1.10
2013,04,30,08,27,1.10
2013,04,30,08,28,1.10
2013,04,30,08,29,1.20
2013,04,30,08,30,1.20
2013,04,30,08,31,1.30
2013,04,30,08,32,1.40
2013,04,30,08,33,1.50
2013,04,30,08,34,1.60
2013,04,30,08,35,1.70
2013,04,30,08,36,1.70
2013,04,30,08,37,1.80
2013,04,30,08,38,1.80
2013,04,30,08,39,1.80
2013,04,30,08,40,1.80
2013,04,30,08,41,1.90
2013,04,30,08,42,1.90
2013,04,30,08,43,1.90
2013,04,30,08,44,1.90
2013,04,30,08,45,1.90
2013,04,30,08,46,2.00
2013,04,30,08,47,2.00
2013,04,30,08,48,2.10
2013,04,30,08,49,2.10
2013,04,30,08,50,2.10
2013,04,30,08,51,2.20
2013,04,30,08,52,2.20
2013,04,30,08,53,2.30
2013,04,30,08,54,2.40
2013,04,30,08,55,2.40
2013,04,30,08,56,2.40
2013,04,30,08,57,2.50
2013,04,30,08,58,2.60
2013,04,30,08,59,2.60
2013,04,30,09,00,2.70
2013,04,30,09,01,2.80
2013,04,30,09,02,2.80
2013,04,30,09,03,2.90
2013,04,30,09,04,2.90
2013,04,30,09,05,3.00
2013,04,30,09,06,3.10
2013,04,30,09,07,3.10
2013,04,30,09,08,3.20
2013,04,30,09,09,3.20
2013,04,30,09,10,3.30
2013,04,30,09,11,3.40
2013,04,30,09,12,3.50
2013,04,30,09,13,3.60
2013,04,30,09,14,3.70
2013,04,30,09,15,3.80
2013,04,30,09,16,3.90
2013,04,30,09,17,4.00
2013,04,30,09,18,4.10
2013,04,30,09,19,4.10
2013,04,30,09,20,4.10
2013,04,30,09,21,4.10
2013,04,30,09,22,4.10
2013,04,30,09,23,4.10
2013,04,30,09,24,4.10
2013,04,30,09,25,4.10
2013,04,30,09,26,4.10
2013,04,30,09,27,4.10
2013,04,30,09,28,4.10
2013,04,30,09,29,4.10
2013,04,30,09,30,4.10
2013,04,30,09,31,4.10
2013,04,30,09,32,4.20
2013,04,30,09,33,4.20
2013,04,30,09,34,4.20
2013,04,30,09,35,4.30
2013,04,30,09,36,4.30
2013,04,30,09,37,4.30
2013,04,30,09,38,4.30
2013,04,30,09,39,4.30
2013,04,30,09,40,4.30
2013,04,30,09,41,4.30
2013,04,30,09,42,4.30
2013,04,30,09,43,4.40
2013,04,30,09,44,4.50
2013,04,30,09,45,4.60
2013,04,30,09,46,4.70
2013,04,30,09,47,4.80
2013,04,30,09,48,4.90
2013,04,30,09,49,5.00
2013,04,30,09,50,5.00
2013,04,30,09,51,5.10
2013,04,30,09,52,5.10
2013,04,30,09,53,5.20
2013,04,30,09,54,5.30
2013,04,30,09,55,5.30
2013,04,30,09,56,5.30
2013,04,30,09,57,5.40
2013,04,30,09,58,5.40
2013,04,30,09,59,5.50
2013,04,30,10,00,5.60
2013,04,30,10,01,5.70
2013,04,30,10,02,5.80
2013,04,30,10,03,5.80
2013,04,30,10,04,5.90
2013,04,30,10,05,6.00
2013,04,30,10,06,6.00
2013,04,30,10,07,6.10
2013,04,30,10,08,6.10
2013,04,30,10,09,6.20
2013,04,30,10,10,6.30
2013,04,30,10,11,6.40
2013,04,30,10,12,6.40
2013,04,30,10,13,6.40
2013,04,30,10,14,6.40
2013,04,30,10,15,6.40
2013,04,30,10,16,6.40
2013,04,30,10,17,6.50
2013,04,30,10,18,6.60
2013,04,30,10,19,6.70
2013,04,30,10,20,6.70
2013,04,30,10,21,6.60
2013,04,30,10,22,6.60
2013,04,30,10,23,6.70
2013,04,30,10,24,6.70
2013,04,30,10,25,6.70
2013,04,30,10,26,6.80
2013,04,30,10,27,6.80
2013,04,30,10,28,6.90
2013,04,30,10,29,7.00
2013,04,30,10,30,7.10
2013,04,30,10,31,7.10
2013,04,30,10,32,7.10
2013,04,30,10,33,7.10
2013,04,30,10,34,7.10
2013,04,30,10,35,7.10
2013,04,30,10,36,7.10
2013,04,30,10,37,7.20
2013,04,30,10,38,7.20
2013,04,30,10,39,7.20
2013,04,30,10,40,7.30
2013,04,30,10,41,7.30
2013,04,30,10,42,7.30
2013,04,30,10,43,7.30
2013,04,30,10,44,7.30
2013,04,30,10,45,7.30
2013,04,30,10,46,7.30
2013,04,30,10,47,7.40
2013,04,30,10,48,7.40
2013,04,30,10,49,7.50
2013,04,30,10,50,7.50
2013,04,30,10,51,7.60
2013,04,30,10,52,7.70
2013,04,30,10,53,7.80
2013,04,30,10,54,7.80
2013,04,30,10,55,7.70
2013,04,30,10,56,7.70
2013,04,30,10,57,7.70
2013,04,30,10,58,7.60
2013,04,30,10,59,7.60
2013,04,30,11,00,7.60
2013,04,30,11,01,7.60
2013,04,30,11,02,7.60
2013,04,30,11,03,7.70
2013,04,30,11,04,7.70
2013,04,30,11,05,7.70
2013,04,30,11,06,7.70
2013,04,30,11,07,7.80
2013,04,30,11,08,7.80
2013,04,30,11,09,7.90
2013,04,30,11,10,7.90
2013,04,30,11,11,8.00
2013,04,30,11,12,8.00
2013,04,30,11,13,8.10
2013,04,30,11,14,8.20
2013,04,30,11,15,8.20
2013,04,30,11,16,8.30
2013,04,30,11,17,8.40
2013,04,30,11,18,8.40
2013,04,30,11,19,8.40
2013,04,30,11,20,8.40
2013,04,30,11,21,8.40
2013,04,30,11,22,8.40
2013,04,30,11,23,8.30
2013,04,30,11,24,8.30
2013,04,30,11,25,8.30
2013,04,30,11,26,8.40
2013,04,30,11,27,8.50
2013,04,30,11,28,8.50
2013,04,30,11,29,8.50
2013,04,30,11,30,8.50
2013,04,30,11,31,8.60
2013,04,30,11,32,8.60
2013,04,30,11,33,8.70
2013,04,30,11,34,8.80
2013,04,30,11,35,9.00
2013,04,30,11,36,9.10
2013,04,30,11,37,9.20
2013,04,30,11,38,9.30
2013,04,30,11,39,9.30
2013,04,30,11,40,9.30
2013,04,30,11,41,9.20
2013,04,30,11,42,9.10
2013,04,30,11,43,9.10
2013,04,30,11,44,9.00
2013,04,30,11,45,8.90
2013,04,30,11,46,8.90
2013,04,30,11,47,8.80
2013,04,30,11,48,8.80
2013,04,30,11,49,8.80
2013,04,30,11,50,8.80
2013,04,30,11,51,8.80
2013,04,30,11,52,8.80
2013,04,30,11,53,8.90
2013,04,30,11,54,8.90
2013,04,30,11,55,8.90
2013,04,30,11,56,8.90
2013,04,30,11,57,8.90
2013,04,30,11,58,8.90
2013,04,30,11,59,8.90
2013,04,30,12,00,8.90
2013,04,30,12,01,8.90
2013,04,30,12,02,8.80
2013,04,30,12,03,8.80
2013,04,30,12,04,8.90
2013,04,30,12,05,9.00
2013,04,30,12,06,9.10
2013,04,30,12,07,9.20
2013,04,30,12,08,9.20
2013,04,30,12,09,9.30
2013,04,30,12,10,9.30
2013,04,30,12,11,9.30
2013,04,30,12,12,9.30
2013,04,30,12,13,9.30
2013,04,30,12,14,9.30
2013,04,30,12,15,9.30
2013,04,30,12,16,9.40
2013,04,30,12,17,9.50
2013,04,30,12,18,9.70
2013,04,30,12,19,9.90
2013,04,30,12,20,10.00
2013,04,30,12,21,10.10
2013,04,30,12,22,10.10
2013,04,30,12,23,10.00
2013,04,30,12,24,10.00
2013,04,30,12,25,9.90
2013,04,30,12,26,9.90
2013,04,30,12,27,9.80
2013,04,30,12,28,9.80
2013,04,30,12,29,9.90
2013,04,30,12,30,9.90
2013,04,30,12,31,10.00
2013,04,30,12,32,10.00
2013,04,30,12,33,10.10
2013,04,30,12,34,10.10
2013,04,30,12,35,10.10
2013,04,30,12,36,10.10
2013,04,30,12,37,10.20
2013,04,30,12,38,10.30
2013,04,30,12,39,10.40
2013,04,30,12,40,10.50
2013,04,30,12,41,10.50
2013,04,30,12,42,10.40
2013,04,30,12,43,10.30
2013,04,30,12,44,10.20
2013,04,30,12,45,10.20
2013,04,30,12,46,10.10
2013,04,30,12,47,10.10
2013,04,30,12,48,10.10
2013,04,30,12,49,10.10
2013,04,30,12,50,10.20
2013,04,30,12,51,10.10
2013,04,30,12,52,10.20
2013,04,30,12,53,10.20
2013,04,30,12,54,10.20
2013,04,30,12,55,10.20
2013,04,30,12,56,10.30
2013,04,30,12,57,10.30
2013,04,30,12,58,10.40
2013,04,30,12,59,10.50
2013,04,30,13,00,10.60
2013,04,30,13,01,10.70
2013,04,30,13,02,10.80
2013,04,30,13,03,10.90
2013,04,30,13,04,11.00
2013,04,30,13,05,11.10
2013,04,30,13,06,11.10
2013,04,30,13,07,11.00
2013,04,30,13,08,11.00
2013,04,30,13,09,10.90
2013,04,30,13,10,10.80
2013,04,30,13,11,10.80
2013,04,30,13,12,10.70
2013,04,30,13,13,10.70
2013,04,30,13,14,10.70
2013,04,30,13,15,10.70
2013,04,30,13,16,10.70
2013,04,30,13,17,10.80
2013,04,30,13,18,10.80
2013,04,30,13,19,10.90
2013,04,30,13,20,11.00
2013,04,30,13,21,11.10
2013,04,30,13,22,11.20
2013,04,30,13,23,11.30
2013,04,30,13,24,11.40
2013,04,30,13,25,11.50
2013,04,30,13,26,11.60
2013,04,30,13,27,11.80
2013,04,30,13,28,11.90
2013,04,30,13,29,12.00
2013,04,30,13,30,12.10
2013,04,30,13,31,12.10
2013,04,30,13,32,12.10
2013,04,30,13,33,12.20
2013,04,30,13,34,12.20
2013,04,30,13,35,12.20
2013,04,30,13,36,12.10
2013,04,30,13,37,12.10
2013,04,30,13,38,12.00
2013,04,30,13,39,11.90
2013,04,30,13,40,11.90
2013,04,30,13,41,11.80
2013,04,30,13,42,11.80
2013,04,30,13,43,11.70
2013,04,30,13,44,11.70
2013,04,30,13,45,11.80
2013,04,30,13,46,11.80
2013,04,30,13,47,11.90
2013,04,30,13,48,11.90
2013,04,30,13,49,11.90
2013,04,30,13,50,11.80
2013,04,30,13,51,11.90
2013,04,30,13,52,12.00
2013,04,30,13,53,12.10
2013,04,30,13,54,12.10
2013,04,30,13,55,12.10
2013,04,30,13,56,12.10
2013,04,30,13,57,12.00
2013,04,30,13,58,11.90
2013,04,30,13,59,11.90
2013,04,30,14,00,11.80
2013,04,30,14,01,11.80
2013,04,30,14,02,11.80
2013,04,30,14,03,11.80
2013,04,30,14,04,11.90
2013,04,30,14,05,12.00
2013,04,30,14,06,12.10
2013,04,30,14,07,12.30
2013,04,30,14,08,12.40
2013,04,30,14,09,12.60
2013,04,30,14,10,12.60
2013,04,30,14,11,12.50
2013,04,30,14,12,12.40
2013,04,30,14,13,12.30
2013,04,30,14,14,12.30
2013,04,30,14,15,12.30
2013,04,30,14,16,12.30
2013,04,30,14,17,12.30
2013,04,30,14,18,12.30
2013,04,30,14,19,12.30
2013,04,30,14,20,12.40
2013,04,30,14,21,12.40
2013,04,30,14,22,12.40
2013,04,30,14,23,12.50
2013,04,30,14,24,12.50
2013,04,30,14,25,12.50
2013,04,30,14,26,12.40
2013,04,30,14,27,12.30
2013,04,30,14,28,12.20
2013,04,30,14,29,12.10
2013,04,30,14,30,12.10
2013,04,30,14,31,12.10
2013,04,30,14,32,12.20
2013,04,30,14,33,12.30
2013,04,30,14,34,12.40
2013,04,30,14,35,12.40
2013,04,30,14,36,12.50
2013,04,30,14,37,12.70
2013,04,30,14,38,12.80
2013,04,30,14,39,12.90
2013,04,30,14,40,13.00
2013,04,30,14,41,13.20
2013,04,30,14,42,13.10
2013,04,30,14,43,13.00
2013,04,30,14,44,12.90
2013,04,30,14,45,12.90
2013,04,30,14,46,12.80
2013,04,30,14,47,12.70
2013,04,30,14,48,12.70
2013,04,30,14,49,12.70
2013,04,30,14,50,12.60
2013,04,30,14,51,12.60
2013,04,30,14,52,12.60
2013,04,30,14,53,12.60
2013,04,30,14,54,12.70
2013,04,30,14,55,12.60
2013,04,30,14,56,12.60
2013,04,30,14,57,12.60
2013,04,30,14,58,12.60
2013,04,30,14,59,12.60
2013,04,30,15,00,12.70
2013,04,30,15,01,12.90
2013,04,30,15,02,13.00
2013,04,30,15,03,13.20
2013,04,30,15,04,13.30
2013,04,30,15,05,13.30
2013,04,30,15,06,13.30
2013,04,30,15,07,13.20
2013,04,30,15,08,13.20
2013,04,30,15,09,13.30
2013,04,30,15,10,13.30
2013,04,30,15,11,13.40
2013,04,30,15,12,13.50
2013,04,30,15,13,13.50
2013,04,30,15,14,13.60
2013,04,30,15,15,13.70
2013,04,30,15,16,13.70
2013,04,30,15,17,13.70
2013,04,30,15,18,13.60
2013,04,30,15,19,13.50
2013,04,30,15,20,13.40
2013,04,30,15,21,13.30
2013,04,30,15,22,13.30
2013,04,30,15,23,13.30
2013,04,30,15,24,13.30
2013,04,30,15,25,13.40
2013,04,30,15,26,13.40
2013,04,30,15,27,13.40
2013,04,30,15,28,13.40
2013,04,30,15,29,13.50
2013,04,30,15,30,13.60
2013,04,30,15,31,13.70
2013,04,30,15,32,13.70
2013,04,30,15,33,13.60
2013,04,30,15,34,13.50
2013,04,30,15,35,13.40
2013,04,30,15,36,13.40
2013,04,30,15,37,13.30
2013,04,30,15,38,13.30
2013,04,30,15,39,13.20
2013,04,30,15,40,13.10
2013,04,30,15,41,13.10
2013,04,30,15,42,13.10
2013,04,30,15,43,13.10
2013,04,30,15,44,13.10
2013,04,30,15,45,13.00
2013,04,30,15,46,13.00
2013,04,30,15,47,13.10
2013,04,30,15,48,13.10
2013,04,30,15,49,13.20
2013,04,30,15,50,13.30
2013,04,30,15,51,13.40
2013,04,30,15,52,13.40
2013,04,30,15,53,13.40
2013,04,30,15,54,13.40
2013,04,30,15,55,13.30
2013,04,30,15,56,13.30
2013,04,30,15,57,13.20
2013,04,30,15,58,13.20
2013,04,30,15,59,13.20
2013,04,30,16,00,13.30
2013,04,30,16,01,13.30
2013,04,30,16,02,13.40
2013,04,30,16,03,13.50
2013,04,30,16,04,13.50
2013,04,30,16,05,13.30
2013,04,30,16,06,13.20
2013,04,30,16,07,13.20
2013,04,30,16,08,13.20
2013,04,30,16,09,13.20
2013,04,30,16,10,13.20
2013,04,30,16,11,13.10
2013,04,30,16,12,13.00
2013,04,30,16,13,12.90
2013,04,30,16,14,12.80
2013,04,30,16,15,12.80
2013,04,30,16,16,12.80
2013,04,30,16,17,12.90
2013,04,30,16,18,13.00
2013,04,30,16,19,13.10
2013,04,30,16,20,13.10
2013,04,30,16,21,13.10
2013,04,30,16,22,13.10
2013,04,30,16,23,13.10
2013,04,30,16,24,13.10
2013,04,30,16,25,13.10
2013,04,30,16,26,13.10
2013,04,30,16,27,13.20
2013,04,30,16,28,13.30
2013,04,30,16,29,13.30
2013,04,30,16,30,13.30
2013,04,30,16,31,13.30
2013,04,30,16,32,13.40
2013,04,30,16,33,13.40
2013,04,30,16,34,13.40
2013,04,30,16,35,13.40
2013,04,30,16,36,13.30
2013,04,30,16,37,13.30
2013,04,30,16,38,13.30
2013,04,30,16,39,13.40
2013,04,30,16,40,13.40
2013,04,30,16,41,13.50
2013,04,30,16,42,13.50
2013,04,30,16,43,13.40
2013,04,30,16,44,13.40
2013,04,30,16,45,13.50
2013,04,30,16,46,13.50
2013,04,30,16,47,13.60
2013,04,30,16,48,13.60
2013,04,30,16,49,13.70
2013,04,30,16,50,13.80
2013,04,30,16,51,13.90
2013,04,30,16,52,13.90
2013,04,30,16,53,13.80
2013,04,30,16,54,13.80
2013,04,30,16,55,13.70
2013,04,30,16,56,13.70
2013,04,30,16,57,13.70
2013,04,30,16,58,13.70
2013,04,30,16,59,13.70
2013,04,30,17,00,13.60
2013,04,30,17,01,13.60
2013,04,30,17,02,13.60
2013,04,30,17,03,13.60
2013,04,30,17,04,13.60
2013,04,30,17,05,13.60
2013,04,30,17,06,13.70
2013,04,30,17,07,13.70
2013,04,30,17,08,13.80
2013,04,30,17,09,13.80
2013,04,30,17,10,13.70
2013,04,30,17,11,13.80
2013,04,30,17,12,13.70
2013,04,30,17,13,13.70
2013,04,30,17,14,13.60
2013,04,30,17,15,13.60
2013,04,30,17,16,13.70
2013,04,30,17,17,13.70
2013,04,30,17,18,13.70
2013,04,30,17,19,13.60
2013,04,30,17,20,13.60
2013,04,30,17,21,13.70
2013,04,30,17,22,13.70
2013,04,30,17,23,13.70
2013,04,30,17,24,13.70
2013,04,30,17,25,13.60
2013,04,30,17,26,13.60
2013,04,30,17,27,13.70
2013,04,30,17,28,13.70
2013,04,30,17,29,13.70
2013,04,30,17,30,13.60
2013,04,30,17,31,13.60
2013,04,30,17,32,13.60
2013,04,30,17,33,13.70
2013,04,30,17,34,13.70
2013,04,30,17,35,13.80
2013,04,30,17,36,13.90
2013,04,30,17,37,13.90
2013,04,30,17,38,13.90
2013,04,30,17,39,13.90
2013,04,30,17,40,13.90
2013,04,30,17,41,13.90
2013,04,30,17,42,13.80
2013,04,30,17,43,13.70
2013,04,30,17,44,13.70
2013,04,30,17,45,13.60
2013,04,30,17,46,13.60
2013,04,30,17,47,13.60
2013,04,30,17,48,13.60
2013,04,30,17,49,13.60
2013,04,30,17,50,13.60